Location: Castelbiague
(43.0361°N, 0.9246°E)
Time: 09:28:49
(UTC+00:00)

ERS-1 Rocket - Pass Details

Date: 17 June 2021
Orbit: 752 x 758 km, 98.4° (Epoch: 01 August)

Event Time Altitude Azimuth Distance (km) Brightness Sun altitude
Exits shadow 22:24:30 20° 216° (SW) 1,712 4.5 -20.2°
Maximum altitude 22:27:09 31° 264° (W) 1,301 4.3 -20.4°
Drops below altitude 10° 22:31:38 10° 327° (NNW) 2,297 6.6 -20.7°
Sets 22:34:11 0° 337° (NNW) 3,227 7.8 -20.9°
